This demonstration page uses our WeatherBlox Daily Observations layout. Learn more.

Left ArrowRight Arrow

34.02893, -84.19858

Hourly Observations for May 18, 2015

Temp ( °F °C ) Dew Point ( °F °C ) Humidity (%) Winds ( mph kmh ) Pressure ( in mb ) Visibility ( mi km ) Precip ( " mm )
12:07 am 00:07 Clear with Mist and Fog 69 20.6 68 20 96 96 Calm 30.21 1023 3 5 0.00 0.00
12:27 am 00:27 Clear with Mist and Fog 68 20 67 19.4 96 96 Calm 30.21 1023 2 3 0.00 0.00
12:53 am 00:53 Clear with Mist and Fog 69 20.6 68 20 96 96 Calm 30.21 1023 2 3 0.00 0.00
1:00 am 01:00 Clear with Mist and Fog 68 20 66 19 94 94 Calm 30.21 1023 2 3 0.00 0.00
1:07 am 01:07 Clear with Mist and Fog 68 20 66 19 94 94 Calm 30.21 1023 1 2 0.00 0.00
1:36 am 01:36 Mostly Cloudy with Mist and Fog 68 20 66 19 94 94 N 3 6 30.21 1023 3 4 0.00 0.00
1:50 am 01:50 Partly Cloudy with Mist and Fog 68 20 66 19 94 94 N 3 6 30.21 1023 3 5 0.00 0.00
1:53 am 01:53 Partly Cloudy with Mist and Fog 68 20 67 19.4 96 96 Calm 30.19 1022 3 5 0.00 0.00
2:16 am 02:16 Clear with Mist and Fog 68 20 66 19 94 94 Calm 30.21 1023 2 3 0.00 0.00
2:31 am 02:31 Mostly Clear with Mist and Fog 68 20 67 19.4 96 96 Calm 30.18 1022 3 5 0.00 0.00
2:53 am 02:53 Mostly Cloudy with Mist and Fog 69 20.6 68 20 96 96 WSW 7 11 30.18 1022 4 6 0.00 0.00
3:53 am 03:53 Clear with Mist and Fog 68 20 67 19.4 96 96 Calm 30.17 1022 4 6 0.00 0.00
4:08 am 04:08 Clear with Mist and Fog 66 19 66 19 100 100 Calm 30.18 1022 2 3 0.00 0.00
4:21 am 04:21 Clear with Mist and Fog 66 18.9 66 18.9 100 100 S 3 6 30.18 1022 3 4 0.00 0.00
4:32 am 04:32 Clear with Mist and Fog 66 19 66 19 100 100 Calm 30.18 1022 2 2 0.00 0.00
4:43 am 04:43 Clear with Mist and Fog 67 19.4 66 18.9 97 97 Calm 30.18 1022 2 3 0.00 0.00
4:53 am 04:53 Clear with Mist and Fog 67 19.4 66 18.9 97 97 Calm 30.16 1022 2 3 0.00 0.00
5:25 am 05:25 Clear with Mist and Fog 67 19.4 66 18.9 97 97 Calm 30.15 1021 3 5 0.00 0.00
5:49 am 05:49 Clear with Mist and Fog 66 19 66 19 100 100 Calm 30.15 1021 2 3 0.00 0.00
5:53 am 05:53 Clear with Mist and Fog 66 18.9 66 18.9 100 100 Calm 30.16 1021 2 3 0.00 0.00
6:03 am 06:03 Clear with Mist and Fog 66 19 66 19 100 100 Calm 30.15 1021 2 3 0.00 0.00
6:17 am 06:17 Clear with Mist and Fog 67 19.4 66 18.9 97 97 W 3 6 30.18 1022 4 6 0.00 0.00
6:40 am 06:40 Sunny 68 20 66 19 94 94 Calm 30.18 1022 3 4 0.00 0.00
6:53 am 06:53 Sunny 67 19.4 66 18.9 97 97 NNE 3 6 30.17 1022 10 16 0.00 0.00
7:53 am 07:53 Sunny 69 20.6 68 20 96 96 Calm 30.18 1022 10 16 0.00 0.00
8:00 am 08:00 Sunny with Mist and Fog 70 21.1 68 20 93 93 Calm 30.18 1022 3 4 0.00 0.00
8:10 am 08:10 Sunny 70 21 66 19 88 88 Calm 30.18 1022 10 16 0.00 0.00
8:53 am 08:53 Sunny 71 21.7 68 20 90 90 Calm 30.19 1022 10 16 0.00 0.00
9:53 am 09:53 Hazy 74 23.3 69 20.6 85 85 Calm 30.19 1022 4 6 0.00 0.00
10:53 am 10:53 Mostly Cloudy with Haze 78 25.6 68 20 71 71 Calm 30.19 1022 6 10 0.00 0.00
11:15 am 11:15 Mostly Cloudy with Haze 78 25.6 69 20.6 74 74 W 6 9 30.21 1023 5 8 0.00 0.00
11:53 am 11:53 Hazy 81 27.2 69 20.6 67 67 undefined N/A 30.19 1022 6 10 0.00 0.00
12:53 pm 12:53 Mostly Cloudy with Nearby Thunderstorms 82 27.8 69 20.6 65 65 WSW 8 13 30.15 1021 6 10 0.00 0.03
1:25 pm 13:25 Mostly Cloudy with Thunderstorms 81 27.2 68 20 65 65 W 12 19 30.15 1021 6 10 0.00 0.03
1:46 pm 13:46 Cloudy with Thunderstorms 72 22 66 19 83 83 NW 13 20 30.18 1022 4 6 0.00 0.00
1:50 pm 13:50 Cloudy with Thunderstorms 72 22 66 19 83 83 NW 9 15 30.18 1022 2 3 0.00 0.00
1:53 pm 13:53 Cloudy with Strong Thunderstorms 71 21.7 67 19.4 87 87 N 7 11 30.18 1022 7 11 0.05 1.27
2:08 pm 14:08 Cloudy with Nearby Thunderstorms 72 22 66 19 83 83 Calm 30.15 1021 7 11 0.00 0.00
2:34 pm 14:34 Mostly Cloudy with Mist and Fog 72 22 70 21 94 94 Calm 30.15 1021 6 10 0.00 0.00
2:53 pm 14:53 Mostly Cloudy 73 22.8 70 21.1 90 90 Calm 30.13 1020 7 11 0.01 0.25
3:53 pm 15:53 Sunny 80 26.7 71 21.7 74 74 VRB 5 7 30.12 1020 8 13 0.00 0.00
4:34 pm 16:34 Partly Cloudy with Nearby Thunderstorms 77 25 70 21.1 79 79 VRB 6 9 30.12 1020 7 11 0.00 0.00
4:45 pm 16:45 Mostly Cloudy with Thunderstorms 76 24.4 68 20 77 77 SSE 7 11 30.12 1020 7 11 0.00 0.00
4:53 pm 16:53 Partly Cloudy with Thunderstorms 76 24.4 68 20 77 77 SSE 7 11 30.10 1019 8 13 0.00 0.00
5:00 pm 17:00 Partly Cloudy with Nearby Thunderstorms 75 24 68 20 78 78 VRB 5 7 30.12 1020 8 13 0.00 0.00
5:15 pm 17:15 Mostly Cloudy with Thunderstorms 74 23.3 65 18.3 74 74 W 20 31 30.12 1020 7 11 0.00 0.00
5:20 pm 17:20 Mostly Cloudy with Thunderstorms 69 20.6 66 18.9 90 90 WNW 14 22 30.15 1021 1 1 0.11 2.79
5:22 pm 17:22 Mostly Cloudy with Strong Thunderstorms 68 20 66 19 94 94 NW 15 24 30.12 1020 1 1 0.00 0.00
5:26 pm 17:26 Mostly Cloudy with Nearby Thunderstorms 70 21 66 19 88 88 NW 13 20 30.12 1020 1 1 0.00 0.00
5:33 pm 17:33 Cloudy with Nearby Thunderstorms 69 20.6 66 18.9 90 90 NW 8 13 30.12 1020 1 1 0.34 8.64
5:43 pm 17:43 Cloudy with Nearby Thunderstorms 69 20.6 67 19.4 93 93 Calm 30.12 1020 5 8 0.45 11.43
5:53 pm 17:53 Cloudy with Strong Thunderstorms 70 21.1 68 20 93 93 W 8 13 30.12 1020 5 8 0.52 13.21
6:38 pm 18:38 Mostly Cloudy with Nearby Thunderstorms 70 21 68 20 94 94 SSW 6 9 30.12 1020 10 16 0.00 0.00
6:53 pm 18:53 Mostly Cloudy 70 21.1 68 20 93 93 Calm 30.12 1020 10 16 0.15 3.81
7:53 pm 19:53 Mostly Sunny 70 21.1 68 20 93 93 S 5 7 30.13 1020 7 11 0.00 0.00
8:53 pm 20:53 Mostly Cloudy 69 20.6 68 20 96 96 Calm 30.14 1021 7 11 0.00 0.00
9:53 pm 21:53 Partly Cloudy with Mist and Fog 69 20.6 68 20 96 96 Calm 30.13 1020 5 8 0.00 0.00
10:53 pm 22:53 Cloudy 69 20.6 68 20 96 96 Calm 30.12 1020 10 16 0.00 0.00
11:53 pm 23:53 Cloudy 70 21.1 68 20 93 93 NW 3 6 30.10 1019 8 13 0.00 0.00

Powered by AerisWeather